Regional Weather Roundup
Issued by NWS

Home | Current Version | Previous Version | Text Only | Print | Product List | Glossary Off
Versions: 1 2 3 4 5 6 7 8 9 10 11 12 13 14 15 16 17 18 19 20 21 22 23 24 25 26 27 28 29 30 31 32 33 34 35 36 37 38 39 40 41 42 43 44 45 46 47 48 49 50

345
ASUS43 KBIS 222002
RWRND

NORTH DAKOTA REGIONAL WEATHER ROUNDUP
NATIONAL WEATHER SERVICE BISMARCK ND
300 PM CDT MON MAY 22 2017

NOTE: "FAIR" INDICATES FEW OR NO CLOUDS BELOW 12,000 FEET WITH NO
SIGNIFICANT WEATHER AND/OR OBSTRUCTIONS TO VISIBILITY.


NDZ001>003-009>011-017-222100-
NORTHWEST NORTH DAKOTA

CITY           SKY/WX    TMP DP  RH WIND       PRES   REMARKS
WILLISTON      CLOUDY    60  39  45 NW13      30.06S
MINOT          PTSUNNY   62  37  39 NW16G24   29.97F
MINOT AFB      PTSUNNY   62  37  39 NW18G25   29.96F
$$

NDZ018>021-031>035-040>046-222100-
SOUTHWEST NORTH DAKOTA

CITY           SKY/WX    TMP DP  RH WIND       PRES   REMARKS
BISMARCK       CLOUDY    61  36  39 N18G30    29.98S
DICKINSON      PTSUNNY   58  33  39 N18G25    30.02R
GARRISON         N/A     61  36  39 N21G28    29.99F
HETTINGER ARPT PTSUNNY   61  34  36 N21G28    30.03R
$$

NDZ004>008-012>016-024-026-027-054-222100-
NORTHEAST NORTH DAKOTA

CITY           SKY/WX    TMP DP  RH WIND       PRES   REMARKS
GRAND FORKS    LGT RAIN  51  44  77 N23G30    29.87R
GRND FRKS AFB  DRIZZLE   50  43  76 N16       29.88R
DEVILS LAKE    LGT RAIN  51  42  71 N13       29.93R
$$

NDZ022-023-025-028>030-036>039-047>053-222100-
SOUTHEAST NORTH DAKOTA

CITY           SKY/WX    TMP DP  RH WIND       PRES   REMARKS
FARGO          NOT AVBL
JAMESTOWN      CLOUDY    57  41  55 NW18G26   29.90R
$$





USA.gov is the U.S. government's official web portal to all federal, state and local government web resources and services.